Regional Weather Roundup
Issued by NWS

Home | Current Version | Previous Version | Graphics & Text | Print | Product List | Glossary On
Versions: 1 2 3 4 5 6 7 8 9 10 11 12 13 14 15 16 17 18 19 20 21 22 23 24 25 26 27 28 29 30 31 32 33 34 35 36 37 38 39 40 41 42 43 44 45 46 47 48 49 50
000
ASUS43 KDTX 211210
RWRMI
MICHIGAN HOURLY REGIONAL WEATHER ROUNDUP
NATIONAL WEATHER SERVICE DETROIT/PONTIAC MI
800 AM EDT TUE OCT 21 2014

NOTE: "FAIR" INDICATES FEW OR NO CLOUDS BELOW 12,000 FEET WITH NO
SIGNIFICANT WEATHER AND/OR OBSTRUCTION TO VISIBILITY.

MIZ047>049-052>055-059>063-066>070-074>076-081>083-211300-
SOUTHEAST LOWER MICHIGAN

CITY           SKY/WX    TMP DP  RH WIND       PRES   REMARKS
ADRIAN         CLOUDY    47  43  86 N8        29.98R
6HR MIN TEMP:  47; 6HR MAX TEMP:  49;

ALMA           CLOUDY    46  42  85 N5        30.03R
6HR MIN TEMP:  46; 6HR MAX TEMP:  48;

ANN ARBOR      CLOUDY    47  43  86 NW7       29.96R
BAD AXE        CLOUDY    44  41  89 N14G20    29.98R
6HR MIN TEMP:  44; 6HR MAX TEMP:  47;

CARO           CLOUDY    46  42  88 N10       29.98R
DETROIT CITY   CLOUDY    50  45  83 N7        29.95R
6HR MIN TEMP:  49; 6HR MAX TEMP:  51; 6HR PCP: TRACE;

DETROIT        DRIZZLE   48  45  89 NW7       29.95R
6HR MIN TEMP:  48; 6HR MAX TEMP:  50; 6HR PCP: TRACE;

FLINT          LGT RAIN  47  44  90 N10       30.00R FOG
6HR MIN TEMP:  47; 6HR MAX TEMP:  50; 6HR PCP:  0.06;

GROSSE ILE     CLOUDY    48  45  87 NW7       29.94R FOG
HILLSDALE      CLOUDY    46  46  98 NW8       29.98R
6HR MIN TEMP:  46; 6HR MAX TEMP:  49;

HOWELL         DRIZZLE   45  44  96 N5        29.98R
6HR MIN TEMP:  45; 6HR MAX TEMP:  47;


CITY           SKY/WX    TMP DP  RH WIND       PRES   REMARKS
JACKSON        LGT RAIN  45  44  97 NW3       29.98R FOG
6HR MIN TEMP:  45; 6HR MAX TEMP:  48; 6HR PCP: TRACE;

LAMBERTVILLE   CLOUDY    48  43  81 NW5       29.96R
LANSING        LGT RAIN  46  42  86 N12G23    30.01R
6HR MIN TEMP:  46; 6HR MAX TEMP:  48; 6HR PCP:  0.01;

LAPEER         CLOUDY    45  42  89 N8        29.97R
MASON          RAIN      45  44  96 N6        29.99R
MONROE         CLOUDY    48  45  87 NW6       29.94R
MT. CLEMENS    CLOUDY    46  45  93 N15G25    29.92R
6HR MIN TEMP:  47; 6HR MAX TEMP:  49; 6HR PCP: TRACE;

PONTIAC        DRIZZLE   45  43  93 N14       29.95R FOG
6HR MIN TEMP:  46; 6HR MAX TEMP:  47; 6HR PCP: TRACE;

PORT HOPE        N/A     47  41  80 N13G26    29.96R
6HR MIN TEMP:  47; 6HR MAX TEMP:  49; 6HR PCP:  0.02;

PORT HURON     CLOUDY    46  43  87 N8        29.94R
TRI CITIES     CLOUDY    47  40  76 N13       30.03R
6HR MIN TEMP:  47; 6HR MAX TEMP:  50; 6HR PCP: TRACE;

TROY           CLOUDY    49  44  81 N10       29.96R
SAGINAW HB     CLOUDY    46  41  81 N13       30.00R
$$
MIZ043>046-050>051-056>058-064>065-071>073-077>080-211300-
SOUTHWEST LOWER MICHIGAN

CITY           SKY/WX    TMP DP  RH WIND       PRES   REMARKS
BATTLE CREEK   LGT RAIN  46  42  86 NW7       30.02R FOG
6HR MIN TEMP:  46; 6HR MAX TEMP:  47; 6HR PCP: TRACE;

BENTON HARBOR  LGT RAIN  47  44  90 CALM      30.04R
6HR MIN TEMP:  47; 6HR MAX TEMP:  49; 6HR PCP:  0.06;

BIG RAPIDS     CLOUDY    45  45 100 N7        30.04R
6HR MIN TEMP:  45; 6HR MAX TEMP:  46;

COLDWATER      CLOUDY    47  45  93 NW8       30.00R
6HR MIN TEMP:  47; 6HR MAX TEMP:  48;

FREMONT        CLOUDY    45  44  95 N9        30.04R
HOLLAND        CLOUDY    49  43  80 VRB5      30.05R
6HR MIN TEMP:  48; 6HR MAX TEMP:  49; 6HR PCP: TRACE;

GRAND RAPIDS   LGT RAIN  47  44  90 N9        30.03R
6HR MIN TEMP:  47; 6HR MAX TEMP:  48; 6HR PCP: TRACE;

IONIA          DRIZZLE   46  45  95 N6        30.01R
KALAMAZOO      LGT RAIN  46  42  86 NW10      30.02R
6HR MIN TEMP:  46; 6HR MAX TEMP:  47; 6HR PCP: TRACE;

LUDINGTON      CLOUDY    47  44  90 N9        30.08R
6HR MIN TEMP:  45; 6HR MAX TEMP:  47; 6HR PCP:  0.01;

MARSHALL       DRIZZLE   44  43  96 CALM      29.99R
MOUNT PLEASANT DRIZZLE   45  41  85 N8G17     30.03R
6HR MIN TEMP:  45; 6HR MAX TEMP:  47;

MUSKEGON       CLOUDY    48  42  80 N10       30.06R
6HR MIN TEMP:  47; 6HR MAX TEMP:  48; 6HR PCP: TRACE;

SOUTH HAVEN    CLOUDY    48  44  87 N6        30.04R
$$
MIZ016>042-211300-
NORTHERN LOWER MICHIGAN

CITY           SKY/WX    TMP DP  RH WIND       PRES   REMARKS
ALPENA         CLOUDY    42  34  73 N20       30.06R
6HR MIN TEMP:  42; 6HR MAX TEMP:  45;

BEAVER ISLAND  MOCLDY    43  36  75 NE5       30.13R
6HR MIN TEMP:  43; 6HR MAX TEMP:  46;

BELLAIRE       CLOUDY    44  36  71 NE12G17   30.10R
CADILLAC       CLOUDY    41  40  97 N8        30.05R
CHARLEVOIX     CLOUDY    45  36  71 NE10G17   30.13R
6HR MIN TEMP:  45; 6HR MAX TEMP:  47;

FRANKFORT      CLOUDY    47  39  73 N12G17    30.10R
GAYLORD        CLOUDY    40  35  83 VRB7      30.07R
6HR MIN TEMP:  40; 6HR MAX TEMP:  43;

GRAYLING       CLOUDY    41  39  91 N8        30.07R
6HR MIN TEMP:  41; 6HR MAX TEMP:  46;

HARBOR SPRINGS CLOUDY    43  34  70 NE7       30.11R
HOUGHTON LAKE  CLOUDY    42  39  89 N8        30.05R
6HR MIN TEMP:  42; 6HR MAX TEMP:  45; 6HR PCP: TRACE;

MANISTEE       CLOUDY    46  37  71 N7        30.09R
OSCODA         CLOUDY    44  38  80 N14G21    30.01R
PELLSTON       CLOUDY    42  35  76 N13       30.11R
6HR MIN TEMP:  42; 6HR MAX TEMP:  45;

ROGERS CITY    PTCLDY    41  34  75 N12G18    30.10R
TRAVERSE CITY  CLOUDY    46  37  71 NE9       30.08R
6HR MIN TEMP:  46; 6HR MAX TEMP:  49; 6HR PCP:  0.01;

$$
MIZ007>008-015-211300-
EASTERN UPPER MICHIGAN

CITY           SKY/WX    TMP DP  RH WIND       PRES   REMARKS
KINROSS        CLEAR     36  34  93 N5        30.13R WCI  32
6HR MIN TEMP:  36; 6HR MAX TEMP:  43;

MACKINAC ISLAN CLEAR     40  32  74 NE14      30.12R WCI  32
6HR MIN TEMP:  40; 6HR MAX TEMP:  44;

NEWBERRY       CLEAR     35  33  93 N5        30.14R WCI  31
S. S. MARIE    CLEAR     37  30  75 N10       30.13R WCI  30
6HR MIN TEMP:  37; 6HR MAX TEMP:  43;

MUNISING         N/A     45  38  76 N14       30.17R
6HR MIN TEMP:  45; 6HR MAX TEMP:  47;

$$
MIZ004>006-011>014-085-211300-
CENTRAL UPPER MICHIGAN

CITY           SKY/WX    TMP DP  RH WIND       PRES   REMARKS
MANISTIQUE     PTCLDY    38  35  89 N8        30.15R WCI  32
ESCANABA       CLOUDY    43  36  75 N8        30.16R
6HR MIN TEMP:  43; 6HR MAX TEMP:  43;

MENOMINEE      CLOUDY    43  37  81 N7        30.16R
6HR MIN TEMP:  43; 6HR MAX TEMP:  45;

SAWYER-GWINN   CLOUDY    37  34  87 N8        30.17R WCI  31
$$
MIZ001>003-009>011-084-211300-
WESTERN UPPER MICHIGAN

CITY           SKY/WX    TMP DP  RH WIND       PRES   REMARKS
IRON MOUNTAIN  CLOUDY    40  35  83 N8        30.17R WCI  34
6HR MIN TEMP:  40; 6HR MAX TEMP:  42;

HOUGHTON       CLOUDY    38  31  76 NE5       30.22R WCI  34
6HR MIN TEMP:  38; 6HR MAX TEMP:  39;

COPPER HARBOR    N/A     41  34  76 E8        30.22R
6HR MIN TEMP:  40; 6HR MAX TEMP:  42;

IRONWOOD       CLOUDY    37  36  93 E7        30.20R WCI  32
6HR MIN TEMP:  37; 6HR MAX TEMP:  41;

$$

ABBREVIATIONS USED IN REMARKS
   TC - TEMPERATURE IN CELSIUS
  WCI - WIND CHILL INDEX
   HX - HEAT INDEX
  VSB - VISIBILITY




USA.gov is the U.S. government's official web portal to all federal, state and local government web resources and services.